Whiteclay, NE

8:48 PM MDT on September 27, 2016 (GMT -0600)
Pine Ridge

Weather History for KIEN - February, 2013

Change the Weather History Date:

Wednesday, February 27, 2013

  Actual Average Record
Temperature  
Mean Temperature 30 °F 30 °F  
Max Temperature 41 °F 44 °F 70 °F (2016)
Min Temperature 19 °F 17 °F -8 °F (2015)
Degree Days  
Heating Degree Days 35 35  
Month to date heating degree days 938 1039  
Since 1 July heating degree days 5065 5316  
Cooling Degree Days 0 0  
Month to date cooling degree days 0 0  
Year to date cooling degree days 0 0  
Moisture  
Dew Point 19 °F    
Average Humidity 65    
Maximum Humidity 92    
Minimum Humidity 38    
Precipitation  
Precipitation T in 0.03 in 0.07 in (2016)
Month to date precipitation 0.18 0.45  
Year to date precipitation 0.94 0.77  
Sea Level Pressure  
Sea Level Pressure 30.25 in    
Wind  
Wind Speed 8 mph (NNW)    
Max Wind Speed 23 mph    
Max Gust Speed 29 mph    
Visibility 10 miles    
Events      
T = Trace of Precipitation, MM = Missing Value Source: NWS Daily Summary

Daily Weather History Graph

Daily Weather History Graph

Search for Another Location

Airport or City:

Trip Planner

Search our weather history database for the weather conditions in past years. The results will help you decide how hot, cold, wet, or windy it might be!

Date:

Astronomy

Feb. 27, 2013 Rise Set
Actual Time 6:28 AM MST 5:37 PM MST
Civil Twilight 6:00 AM MST 6:05 PM MST
Nautical Twilight 5:27 AM MST 6:38 PM MST
Astronomical Twilight 4:54 AM MST 7:11 PM MST
Moon 8:06 PM MST (2/27) 7:01 AM MST (2/27)
Length of Visible Light 12h 05m
Length of Day
11h 08m
Waning Gibbous, 96% of the Moon is Illuminated
Feb 27
Waning Gibbous
Mar 4
Last Quarter
Mar 11
New
Mar 19
First Quarter
Mar 27
Full

Hourly Weather History & Observations

Time (MST) Temp. Windchill Dew Point Humidity Pressure Visibility Wind Dir Wind Speed Gust Speed Precip Events Conditions
12:52 AM 28.9 °F 17.3 °F 19.9 °F 69% 30.16 in 10.0 mi North 16.1 mph 23.0 mph 0.00 in   Mostly Cloudy
1:52 AM 28.0 °F 15.3 °F 19.0 °F 69% 30.17 in 10.0 mi North 18.4 mph 25.3 mph N/A   Mostly Cloudy
2:52 AM 28.0 °F 13.9 °F 19.0 °F 69% 30.17 in 10.0 mi North 23.0 mph 28.8 mph N/A   Clear
3:52 AM 27.0 °F 19.5 °F 19.0 °F 72% 30.19 in 10.0 mi NW 6.9 mph - N/A   Clear
4:52 AM 26.1 °F 16.8 °F 19.0 °F 75% 30.22 in 10.0 mi NW 9.2 mph - N/A   Clear
5:52 AM 24.1 °F - 19.0 °F 81% 30.24 in 10.0 mi Calm Calm - N/A   Clear
6:52 AM 23.0 °F 15.8 °F 19.0 °F 85% 30.26 in 10.0 mi NW 5.8 mph - N/A   Scattered Clouds
7:12 AM 24.8 °F 17.9 °F 19.4 °F 80% 30.17 in 10.0 mi NW 5.8 mph - N/A   Mostly Cloudy
7:52 AM 25.0 °F 19.3 °F 19.9 °F 81% 30.28 in 10.0 mi NW 4.6 mph - N/A   Overcast
8:52 AM 27.0 °F 16.7 °F 19.0 °F 72% 30.28 in 10.0 mi North 11.5 mph 20.7 mph N/A   Mostly Cloudy
9:52 AM 30.0 °F 20.5 °F 19.0 °F 64% 30.28 in 10.0 mi NNW 11.5 mph - N/A   Mostly Cloudy
10:21 AM 32.0 °F 24.2 °F 19.4 °F 60% 30.20 in 10.0 mi NNW 9.2 mph - N/A   Scattered Clouds
10:32 AM 32.0 °F 23.6 °F 19.4 °F 60% 30.20 in 10.0 mi North 10.4 mph - N/A   Mostly Cloudy
10:52 AM 32.0 °F 24.2 °F 19.0 °F 59% 30.27 in 10.0 mi North 9.2 mph 16.1 mph N/A   Mostly Cloudy
11:52 AM 35.1 °F 26.4 °F 19.9 °F 54% 30.27 in 10.0 mi NW 12.7 mph - N/A   Partly Cloudy
12:52 PM 37.0 °F 28.1 °F 19.0 °F 48% 30.24 in 10.0 mi NW 15.0 mph 20.7 mph N/A   Partly Cloudy
1:52 PM 39.0 °F 32.3 °F 19.0 °F 45% 30.23 in 10.0 mi NNW 10.4 mph - N/A   Mostly Cloudy
2:52 PM 41.0 °F 34.7 °F 18.0 °F 40% 30.23 in 10.0 mi NNW 10.4 mph 18.4 mph N/A   Partly Cloudy
3:52 PM 41.0 °F 32.5 °F 17.1 °F 38% 30.23 in 10.0 mi North 17.3 mph - N/A   Clear
4:52 PM 36.0 °F 32.1 °F 18.0 °F 48% 30.26 in 10.0 mi North 4.6 mph - N/A   Partly Cloudy
5:52 PM 30.9 °F 26.2 °F 18.0 °F 59% 30.28 in 10.0 mi North 4.6 mph - N/A   Clear
6:52 PM 28.0 °F - 19.9 °F 72% 30.30 in 10.0 mi Calm Calm - N/A   Mostly Cloudy
7:52 PM 25.0 °F 20.7 °F 19.9 °F 81% 30.30 in 10.0 mi ENE 3.5 mph - N/A   Clear
8:52 PM 23.0 °F - 19.0 °F 85% 30.31 in 10.0 mi Calm Calm - N/A   Clear
9:52 PM 19.9 °F - 17.1 °F 89% 30.31 in 10.0 mi Calm Calm - N/A   Clear
10:52 PM 21.9 °F - 19.0 °F 89% 30.31 in 10.0 mi Calm Calm - N/A   Clear
11:52 PM 19.9 °F 12.1 °F 17.1 °F 89% 30.30 in 10.0 mi East 5.8 mph - N/A   Overcast